Time,TemperatureF,DewpointF,PressureIn,WindDirection,WindDirectionDegrees,WindSpeedMPH,WindSpeedGustMPH,Humidity,HourlyPrecipIn,Conditions,Clouds,dailyrainin,SolarRadiationWatts/m^2,SoftwareType,DateUTC
2013-06-09 00:03:00,61.6,60.5,29.66,SSW,209,0.0,0.0,96,0.00,,---,0.00,0.00,VWS V14.00,2013-06-09 05:03:00,
2013-06-09 00:08:00,61.5,60.3,29.66,SSW,211,0.0,0.0,96,0.00,,---,0.00,0.00,VWS V14.00,2013-06-09 05:08:00,
2013-06-09 00:13:00,61.4,60.2,29.66,SSW,212,0.0,0.0,96,0.00,,---,0.00,0.00,VWS V14.00,2013-06-09 05:13:00,
2013-06-09 00:18:00,61.4,60.2,29.66,SSW,213,0.0,0.0,96,0.00,,---,0.00,0.00,VWS V14.00,2013-06-09 05:18:00,
2013-06-09 00:23:00,61.4,60.2,29.66,SSW,213,0.0,0.0,96,0.00,,---,0.00,0.00,VWS V14.00,2013-06-09 05:23:00,
2013-06-09 00:28:00,61.3,60.2,29.66,SW,214,0.0,0.0,96,0.00,,---,0.00,0.00,VWS V14.00,2013-06-09 05:28:00,
2013-06-09 00:33:00,61.3,60.2,29.66,SSW,213,0.0,0.0,96,0.00,,---,0.00,0.00,VWS V14.00,2013-06-09 05:33:00,
2013-06-09 00:38:00,61.3,60.2,29.66,SW,214,0.0,0.0,96,0.00,,---,0.00,0.00,VWS V14.00,2013-06-09 05:38:00,
2013-06-09 00:43:00,61.3,60.2,29.66,SSW,212,0.0,0.0,96,0.00,,---,0.00,0.00,VWS V14.00,2013-06-09 05:43:00,
2013-06-09 00:48:00,61.3,60.2,29.66,SW,220,0.0,0.0,96,0.00,,---,0.00,0.00,VWS V14.00,2013-06-09 05:48:00,
2013-06-09 00:53:00,61.4,60.2,29.66,SW,218,0.0,0.0,96,0.00,,---,0.00,0.00,VWS V14.00,2013-06-09 05:53:00,
2013-06-09 00:58:00,61.4,60.2,29.66,SW,217,0.0,0.0,96,0.00,,---,0.00,0.00,VWS V14.00,2013-06-09 05:58:00,
2013-06-09 01:04:00,61.5,60.1,29.66,SW,218,0.0,1.0,95,0.00,,---,0.00,0.00,VWS V14.00,2013-06-09 06:04:00,
2013-06-09 01:09:00,61.5,60.1,29.66,SW,215,0.0,0.0,95,0.00,,---,0.00,0.00,VWS V14.00,2013-06-09 06:09:00,
2013-06-09 01:14:00,61.5,60.1,29.66,SW,234,0.0,0.0,95,0.00,,---,0.00,0.00,VWS V14.00,2013-06-09 06:14:00,
2013-06-09 01:19:00,61.5,60.1,29.66,SW,228,0.0,0.0,95,0.00,,---,0.00,0.00,VWS V14.00,2013-06-09 06:19:00,
2013-06-09 01:24:00,61.5,60.1,29.66,SW,220,0.0,0.0,95,0.00,,---,0.00,0.00,VWS V14.00,2013-06-09 06:24:00,
2013-06-09 01:29:00,61.5,60.1,29.66,SW,217,0.0,0.0,95,0.00,,---,0.00,0.00,VWS V14.00,2013-06-09 06:29:00,
2013-06-09 01:34:00,61.6,60.2,29.66,SW,217,0.0,0.0,95,0.00,,---,0.00,0.00,VWS V14.00,2013-06-09 06:34:00,
2013-06-09 01:39:00,61.5,60.1,29.66,SW,219,0.0,4.0,95,0.00,,---,0.00,0.00,VWS V14.00,2013-06-09 06:39:00,
2013-06-09 01:44:00,61.6,60.2,29.66,SW,217,0.0,0.0,95,0.00,,---,0.00,0.00,VWS V14.00,2013-06-09 06:44:00,
2013-06-09 01:49:00,61.6,60.2,29.66,SW,218,0.0,0.0,95,0.00,,---,0.00,0.00,VWS V14.00,2013-06-09 06:49:00,
2013-06-09 01:54:00,61.6,60.2,29.66,SSW,209,0.0,0.0,95,0.00,,---,0.00,0.00,VWS V14.00,2013-06-09 06:54:00,
2013-06-09 01:59:00,61.6,60.2,29.66,SSW,209,0.0,0.0,95,0.00,,---,0.00,0.00,VWS V14.00,2013-06-09 06:59:00,
2013-06-09 02:04:00,61.6,60.2,29.66,SSW,212,0.0,0.0,95,0.00,,---,0.00,0.00,VWS V14.00,2013-06-09 07:04:00,
2013-06-09 02:10:00,61.6,60.2,29.66,SW,217,0.0,0.0,95,0.00,,---,0.00,0.00,VWS V14.00,2013-06-09 07:10:00,
2013-06-09 02:15:00,61.6,60.2,29.66,SW,214,0.0,0.0,95,0.00,,---,0.00,0.00,VWS V14.00,2013-06-09 07:15:00,
2013-06-09 02:20:00,61.6,60.2,29.66,SW,219,0.0,0.0,95,0.00,,---,0.00,0.00,VWS V14.00,2013-06-09 07:20:00,
2013-06-09 02:25:00,61.6,60.2,29.66,SW,220,0.0,0.0,95,0.00,,---,0.00,0.00,VWS V14.00,2013-06-09 07:25:00,
2013-06-09 02:30:00,61.5,60.1,29.66,SW,227,0.0,3.0,95,0.00,,---,0.00,0.00,VWS V14.00,2013-06-09 07:30:00,
2013-06-09 02:35:00,61.4,59.7,29.66,WSW,240,0.0,0.0,94,0.00,,---,0.00,0.00,VWS V14.00,2013-06-09 07:35:00,
2013-06-09 02:40:00,61.4,59.7,29.66,SW,236,0.0,1.0,94,0.00,,---,0.00,0.00,VWS V14.00,2013-06-09 07:40:00,
2013-06-09 02:45:00,61.3,59.6,29.66,WSW,239,0.0,0.0,94,0.00,,---,0.00,0.00,VWS V14.00,2013-06-09 07:45:00,
2013-06-09 02:50:00,61.2,59.5,29.66,WSW,239,0.0,0.0,94,0.00,,---,0.00,0.00,VWS V14.00,2013-06-09 07:50:00,
2013-06-09 02:55:00,61.1,59.1,29.65,WSW,238,0.0,0.0,93,0.00,,---,0.00,0.00,VWS V14.00,2013-06-09 07:55:00,
2013-06-09 03:00:00,61.0,59.0,29.65,WSW,244,0.0,0.0,93,0.00,,---,0.00,0.00,VWS V14.00,2013-06-09 08:00:00,
2013-06-09 03:05:00,60.9,58.9,29.66,WSW,246,0.0,0.0,93,0.00,,---,0.00,0.00,VWS V14.00,2013-06-09 08:05:00,
2013-06-09 03:10:00,60.8,58.8,29.65,WSW,249,0.0,0.0,93,0.00,,---,0.00,0.00,VWS V14.00,2013-06-09 08:10:00,
2013-06-09 03:15:00,60.7,58.4,29.65,SW,217,0.0,0.0,92,0.00,,---,0.00,0.00,VWS V14.00,2013-06-09 08:15:00,
2013-06-09 03:20:00,60.7,58.4,29.65,West,259,0.0,1.0,92,0.00,,---,0.00,0.00,VWS V14.00,2013-06-09 08:20:00,
2013-06-09 03:25:00,60.6,58.3,29.66,WSW,246,0.0,0.0,92,0.00,,---,0.00,0.00,VWS V14.00,2013-06-09 08:25:00,
2013-06-09 03:30:00,60.5,57.9,29.65,WSW,257,0.0,0.0,91,0.00,,---,0.00,0.00,VWS V14.00,2013-06-09 08:30:00,
2013-06-09 03:35:00,60.5,57.9,29.65,West,265,0.0,0.0,91,0.00,,---,0.00,0.00,VWS V14.00,2013-06-09 08:35:00,
2013-06-09 03:40:00,60.5,57.6,29.65,West,265,0.0,1.0,90,0.00,,---,0.00,0.00,VWS V14.00,2013-06-09 08:40:00,
2013-06-09 03:45:00,60.5,57.6,29.65,West,260,0.0,0.0,90,0.00,,---,0.00,0.00,VWS V14.00,2013-06-09 08:45:00,
2013-06-09 03:50:00,60.5,57.6,29.65,WSW,248,0.0,0.0,90,0.00,,---,0.00,0.00,VWS V14.00,2013-06-09 08:50:00,
2013-06-09 03:55:00,60.5,57.6,29.65,SW,231,0.0,0.0,90,0.00,,---,0.00,0.00,VWS V14.00,2013-06-09 08:55:00,
2013-06-09 04:00:00,60.5,57.6,29.65,WSW,245,0.0,0.0,90,0.00,,---,0.00,0.00,VWS V14.00,2013-06-09 09:00:00,
2013-06-09 04:06:00,60.5,57.6,29.64,WSW,245,0.0,0.0,90,0.00,,---,0.00,0.00,VWS V14.00,2013-06-09 09:06:00,
2013-06-09 04:11:00,60.4,57.5,29.64,WSW,252,0.0,0.0,90,0.00,,---,0.00,0.00,VWS V14.00,2013-06-09 09:11:00,
2013-06-09 04:16:00,60.4,57.5,29.64,WSW,244,0.0,0.0,90,0.00,,---,0.00,0.00,VWS V14.00,2013-06-09 09:16:00,
2013-06-09 04:21:00,60.3,57.4,29.65,SW,232,0.0,0.0,90,0.00,,---,0.00,0.00,VWS V14.00,2013-06-09 09:21:00,
2013-06-09 04:26:00,60.3,57.4,29.65,SW,223,0.0,0.0,90,0.00,,---,0.00,0.00,VWS V14.00,2013-06-09 09:26:00,
2013-06-09 04:32:00,60.3,57.7,29.65,SW,226,0.0,0.0,91,0.00,,---,0.00,0.00,VWS V14.00,2013-06-09 09:32:00,
2013-06-09 04:37:00,60.3,57.7,29.65,SW,225,0.0,1.0,91,0.00,,---,0.00,0.00,VWS V14.00,2013-06-09 09:37:00,
2013-06-09 04:42:00,60.2,57.6,29.65,SW,222,0.0,0.0,91,0.00,,---,0.00,0.00,VWS V14.00,2013-06-09 09:42:00,
2013-06-09 04:47:00,60.2,57.6,29.65,SW,223,0.0,0.0,91,0.00,,---,0.00,0.00,VWS V14.00,2013-06-09 09:47:00,
2013-06-09 04:52:00,60.2,57.6,29.65,SW,231,0.0,0.0,91,0.00,,---,0.00,0.00,VWS V14.00,2013-06-09 09:52:00,
2013-06-09 04:57:00,60.2,57.6,29.65,WSW,252,0.0,0.0,91,0.00,,---,0.00,0.00,VWS V14.00,2013-06-09 09:57:00,
2013-06-09 05:02:00,60.2,57.6,29.65,WSW,248,0.0,0.0,91,0.00,,---,0.00,0.00,VWS V14.00,2013-06-09 10:02:00,
2013-06-09 05:07:00,60.2,57.6,29.65,WSW,248,0.0,0.0,91,0.00,,---,0.00,0.00,VWS V14.00,2013-06-09 10:07:00,
2013-06-09 05:12:00,60.2,57.6,29.65,WSW,250,0.0,0.0,91,0.00,,---,0.00,0.00,VWS V14.00,2013-06-09 10:12:00,
2013-06-09 05:17:00,60.2,57.6,29.66,WSW,249,0.0,0.0,91,0.00,,---,0.00,0.00,VWS V14.00,2013-06-09 10:17:00,
2013-06-09 05:22:00,60.2,57.6,29.66,WSW,249,0.0,0.0,91,0.00,,---,0.00,0.00,VWS V14.00,2013-06-09 10:22:00,
2013-06-09 05:27:00,60.3,57.7,29.66,WSW,244,0.0,0.0,91,0.00,,---,0.00,0.00,VWS V14.00,2013-06-09 10:27:00,
2013-06-09 05:32:00,60.2,57.6,29.66,WSW,244,0.0,0.0,91,0.00,,---,0.00,0.00,VWS V14.00,2013-06-09 10:32:00,
2013-06-09 05:37:00,60.2,57.6,29.66,WSW,243,0.0,0.0,91,0.00,,---,0.00,0.00,VWS V14.00,2013-06-09 10:37:00,
2013-06-09 05:43:00,60.2,57.6,29.66,WSW,243,0.0,0.0,91,0.00,,---,0.00,0.00,VWS V14.00,2013-06-09 10:43:00,
2013-06-09 05:48:00,60.2,57.9,29.66,WSW,246,0.0,0.0,92,0.00,,---,0.00,0.00,VWS V14.00,2013-06-09 10:48:00,
2013-06-09 05:53:00,60.2,57.9,29.66,WSW,244,0.0,0.0,92,0.00,,---,0.00,0.00,VWS V14.00,2013-06-09 10:53:00,
2013-06-09 05:58:00,60.1,57.8,29.66,SW,230,0.0,0.0,92,0.00,,---,0.00,0.00,VWS V14.00,2013-06-09 10:58:00,
2013-06-09 06:03:00,60.1,57.8,29.66,SW,233,0.0,0.0,92,0.00,,---,0.00,0.00,VWS V14.00,2013-06-09 11:03:00,
2013-06-09 06:08:00,60.1,57.8,29.66,SW,236,0.0,0.0,92,0.00,,---,0.00,0.00,VWS V14.00,2013-06-09 11:08:00,
2013-06-09 06:13:00,60.2,57.9,29.67,SW,234,0.0,0.0,92,0.00,,---,0.00,0.00,VWS V14.00,2013-06-09 11:13:00,
2013-06-09 06:18:00,60.2,57.9,29.67,WSW,243,0.0,0.0,92,0.00,,---,0.00,5.00,VWS V14.00,2013-06-09 11:18:00,
2013-06-09 06:23:00,60.2,57.9,29.67,WSW,242,0.0,0.0,92,0.00,,---,0.00,11.00,VWS V14.00,2013-06-09 11:23:00,
2013-06-09 06:28:00,60.2,57.9,29.67,WSW,242,0.0,0.0,92,0.00,,---,0.00,16.00,VWS V14.00,2013-06-09 11:28:00,
2013-06-09 06:33:00,60.2,57.9,29.67,WSW,244,0.0,0.0,92,0.00,,---,0.00,18.00,VWS V14.00,2013-06-09 11:33:00,
2013-06-09 06:38:00,60.2,57.9,29.67,WSW,242,0.0,0.0,92,0.00,,---,0.00,9.00,VWS V14.00,2013-06-09 11:38:00,
2013-06-09 06:43:00,60.3,58.0,29.67,WSW,243,0.0,0.0,92,0.00,,---,0.00,7.00,VWS V14.00,2013-06-09 11:43:00,
2013-06-09 06:48:00,60.3,58.0,29.68,WSW,241,0.0,0.0,92,0.00,,---,0.00,7.00,VWS V14.00,2013-06-09 11:48:00,
2013-06-09 06:53:00,60.3,58.0,29.68,WSW,240,0.0,0.0,92,0.00,,---,0.00,11.00,VWS V14.00,2013-06-09 11:53:00,
2013-06-09 06:58:00,60.4,58.1,29.67,WSW,240,0.0,0.0,92,0.00,,---,0.00,19.00,VWS V14.00,2013-06-09 11:58:00,
2013-06-09 07:03:00,60.4,58.1,29.68,WSW,240,0.0,0.0,92,0.00,,---,0.00,26.00,VWS V14.00,2013-06-09 12:03:00,
2013-06-09 07:08:00,60.4,58.1,29.68,WSW,238,0.0,0.0,92,0.00,,---,0.00,26.00,VWS V14.00,2013-06-09 12:08:00,
2013-06-09 07:13:00,60.4,58.1,29.67,WSW,238,0.0,0.0,92,0.00,,---,0.00,23.00,VWS V14.00,2013-06-09 12:13:00,
2013-06-09 07:18:00,60.4,58.1,29.67,WSW,238,0.0,0.0,92,0.00,,---,0.00,19.00,VWS V14.00,2013-06-09 12:18:00,
2013-06-09 07:23:00,60.4,58.1,29.68,WSW,247,0.0,0.0,92,0.00,,---,0.00,19.00,VWS V14.00,2013-06-09 12:23:00,
2013-06-09 07:28:00,60.4,58.1,29.67,SW,228,0.0,0.0,92,0.00,,---,0.00,19.00,VWS V14.00,2013-06-09 12:28:00,
2013-06-09 07:33:00,60.4,58.1,29.67,WSW,239,0.0,0.0,92,0.00,,---,0.00,18.00,VWS V14.00,2013-06-09 12:33:00,
2013-06-09 07:39:00,60.4,58.1,29.67,WSW,240,0.0,0.0,92,0.00,,---,0.00,21.00,VWS V14.00,2013-06-09 12:39:00,
2013-06-09 07:44:00,60.4,58.1,29.67,WSW,249,0.0,0.0,92,0.00,,---,0.00,26.00,VWS V14.00,2013-06-09 12:44:00,
2013-06-09 07:49:00,60.5,57.9,29.67,West,273,0.0,2.0,91,0.00,,---,0.00,33.00,VWS V14.00,2013-06-09 12:49:00,
2013-06-09 07:54:00,60.5,57.9,29.67,West,271,0.0,0.0,91,0.00,,---,0.00,49.00,VWS V14.00,2013-06-09 12:54:00,
2013-06-09 07:59:00,60.6,58.0,29.67,West,261,0.0,1.0,91,0.00,,---,0.00,60.00,VWS V14.00,2013-06-09 12:59:00,
2013-06-09 08:04:00,60.7,58.1,29.67,West,263,0.0,1.0,91,0.00,,---,0.00,60.00,VWS V14.00,2013-06-09 13:04:00,
2013-06-09 08:09:00,60.8,58.2,29.68,WSW,251,0.0,2.0,91,0.00,,---,0.00,58.00,VWS V14.00,2013-06-09 13:09:00,
2013-06-09 08:14:00,60.9,58.3,29.68,WSW,257,0.0,0.0,91,0.00,,---,0.00,54.00,VWS V14.00,2013-06-09 13:14:00,
2013-06-09 08:19:00,60.9,58.6,29.68,West,266,0.0,0.0,92,0.00,,---,0.01,62.00,VWS V14.00,2013-06-09 13:19:00,
2013-06-09 08:24:00,60.9,58.6,29.68,West,272,0.0,1.0,92,0.09,,---,0.02,81.00,VWS V14.00,2013-06-09 13:24:00,
2013-06-09 08:29:00,60.9,58.6,29.68,West,270,0.0,0.0,92,0.08,,---,0.02,88.00,VWS V14.00,2013-06-09 13:29:00,
2013-06-09 08:34:00,60.9,58.6,29.68,West,270,0.0,0.0,92,0.05,,---,0.02,86.00,VWS V14.00,2013-06-09 13:34:00,
2013-06-09 08:39:00,60.9,58.6,29.68,West,266,0.0,0.0,92,0.00,,---,0.02,105.00,VWS V14.00,2013-06-09 13:39:00,
2013-06-09 08:44:00,60.9,58.6,29.68,West,266,0.0,0.0,92,0.00,,---,0.02,118.00,VWS V14.00,2013-06-09 13:44:00,
2013-06-09 08:49:00,60.9,58.6,29.68,WSW,257,0.0,0.0,92,0.00,,---,0.02,109.00,VWS V14.00,2013-06-09 13:49:00,
2013-06-09 08:54:00,60.9,58.9,29.68,WSW,246,0.0,0.0,93,0.00,,---,0.02,90.00,VWS V14.00,2013-06-09 13:54:00,
2013-06-09 08:59:00,60.9,58.9,29.68,WSW,251,0.0,0.0,93,0.00,,---,0.02,79.00,VWS V14.00,2013-06-09 13:59:00,
2013-06-09 09:05:00,60.9,58.9,29.68,WSW,258,0.0,0.0,93,0.00,,---,0.02,83.00,VWS V14.00,2013-06-09 14:05:00,
2013-06-09 09:10:00,60.9,58.9,29.69,West,268,0.0,1.0,93,0.00,,---,0.03,72.00,VWS V14.00,2013-06-09 14:10:00,
2013-06-09 09:15:00,60.9,58.9,29.69,West,265,0.0,2.0,93,0.00,,---,0.03,69.00,VWS V14.00,2013-06-09 14:15:00,
2013-06-09 09:20:00,60.7,58.7,29.69,SW,234,0.0,1.0,93,0.00,,---,0.03,69.00,VWS V14.00,2013-06-09 14:20:00,
2013-06-09 09:25:00,60.6,58.6,29.69,West,265,0.0,1.0,93,0.00,,---,0.03,70.00,VWS V14.00,2013-06-09 14:25:00,
2013-06-09 09:30:00,60.5,58.5,29.69,West,271,0.0,2.0,93,0.00,,---,0.03,67.00,VWS V14.00,2013-06-09 14:30:00,
2013-06-09 09:35:00,60.4,58.4,29.69,West,261,1.0,1.0,93,0.00,,---,0.03,74.00,VWS V14.00,2013-06-09 14:35:00,
2013-06-09 09:40:00,60.3,58.3,29.69,WSW,254,0.0,0.0,93,0.00,,---,0.03,81.00,VWS V14.00,2013-06-09 14:40:00,
2013-06-09 09:45:00,60.2,58.2,29.69,West,273,0.0,1.0,93,0.00,,---,0.04,70.00,VWS V14.00,2013-06-09 14:45:00,
2013-06-09 09:50:00,60.2,58.2,29.69,West,273,0.0,0.0,93,0.00,,---,0.04,86.00,VWS V14.00,2013-06-09 14:50:00,
2013-06-09 09:55:00,60.2,58.2,29.70,West,273,0.0,0.0,93,0.00,,---,0.04,83.00,VWS V14.00,2013-06-09 14:55:00,
2013-06-09 10:00:00,60.2,58.2,29.69,West,274,0.0,0.0,93,0.00,,---,0.04,93.00,VWS V14.00,2013-06-09 15:00:00,
2013-06-09 10:05:00,60.2,58.2,29.70,West,266,0.0,1.0,93,0.00,,---,0.04,72.00,VWS V14.00,2013-06-09 15:05:00,
2013-06-09 10:10:00,60.2,58.2,29.70,WSW,254,0.0,0.0,93,0.00,,---,0.04,84.00,VWS V14.00,2013-06-09 15:10:00,
2013-06-09 10:15:00,60.3,58.3,29.70,West,263,0.0,0.0,93,0.00,,---,0.04,81.00,VWS V14.00,2013-06-09 15:15:00,
2013-06-09 10:20:00,60.3,58.3,29.70,West,280,0.0,2.0,93,0.00,,---,0.04,81.00,VWS V14.00,2013-06-09 15:20:00,
2013-06-09 10:25:00,60.3,58.3,29.70,West,273,0.0,0.0,93,0.00,,---,0.04,53.00,VWS V14.00,2013-06-09 15:25:00,
2013-06-09 10:30:00,60.3,58.3,29.70,WNW,288,0.0,0.0,93,0.00,,---,0.04,65.00,VWS V14.00,2013-06-09 15:30:00,
2013-06-09 10:35:00,60.3,58.3,29.70,WSW,248,0.0,0.0,93,0.00,,---,0.04,67.00,VWS V14.00,2013-06-09 15:35:00,
2013-06-09 10:40:00,60.3,58.3,29.70,WSW,257,0.0,0.0,93,0.00,,---,0.04,62.00,VWS V14.00,2013-06-09 15:40:00,
2013-06-09 10:46:00,60.3,58.3,29.70,West,269,0.0,0.0,93,0.00,,---,0.04,62.00,VWS V14.00,2013-06-09 15:46:00,
2013-06-09 10:51:00,60.4,58.4,29.70,West,270,0.0,0.0,93,0.00,,---,0.04,56.00,VWS V14.00,2013-06-09 15:51:00,
2013-06-09 10:56:00,60.4,58.4,29.70,West,268,0.0,0.0,93,0.00,,---,0.04,72.00,VWS V14.00,2013-06-09 15:56:00,
2013-06-09 11:01:00,60.4,58.4,29.71,West,267,0.0,0.0,93,0.00,,---,0.04,163.00,VWS V14.00,2013-06-09 16:01:00,
2013-06-09 11:06:00,60.6,58.9,29.70,West,277,0.0,0.0,94,0.00,,---,0.04,88.00,VWS V14.00,2013-06-09 16:06:00,
2013-06-09 11:11:00,60.8,59.1,29.70,West,277,0.0,0.0,94,0.00,,---,0.04,69.00,VWS V14.00,2013-06-09 16:11:00,
2013-06-09 11:16:00,60.9,58.9,29.71,West,277,0.0,0.0,93,0.00,,---,0.04,84.00,VWS V14.00,2013-06-09 16:16:00,
2013-06-09 11:21:00,61.0,59.0,29.70,NW,306,0.0,0.0,93,0.00,,---,0.04,102.00,VWS V14.00,2013-06-09 16:21:00,
2013-06-09 11:27:00,61.1,59.1,29.70,West,271,0.0,0.0,93,0.00,,---,0.04,81.00,VWS V14.00,2013-06-09 16:27:00,
2013-06-09 11:32:00,61.2,59.2,29.71,NW,307,0.0,4.0,93,0.00,,---,0.04,62.00,VWS V14.00,2013-06-09 16:32:00,
2013-06-09 11:37:00,61.2,59.2,29.71,WNW,295,0.0,0.0,93,0.00,,---,0.04,67.00,VWS V14.00,2013-06-09 16:37:00,
2013-06-09 11:42:00,61.3,59.3,29.71,NW,319,0.0,1.0,93,0.00,,---,0.04,86.00,VWS V14.00,2013-06-09 16:42:00,
2013-06-09 11:47:00,61.3,59.0,29.71,NW,315,0.0,0.0,92,0.00,,---,0.04,88.00,VWS V14.00,2013-06-09 16:47:00,
2013-06-09 11:52:00,61.4,59.1,29.71,NW,315,0.0,0.0,92,0.00,,---,0.04,109.00,VWS V14.00,2013-06-09 16:52:00,
2013-06-09 11:57:00,61.5,59.2,29.71,NW,317,0.0,1.0,92,0.00,,---,0.04,97.00,VWS V14.00,2013-06-09 16:57:00,
2013-06-09 12:02:00,61.5,59.2,29.71,NW,315,0.0,2.0,92,0.00,,---,0.04,123.00,VWS V14.00,2013-06-09 17:02:00,
2013-06-09 12:07:00,61.4,59.1,29.71,WNW,295,0.0,0.0,92,0.00,,---,0.04,91.00,VWS V14.00,2013-06-09 17:07:00,
2013-06-09 12:12:00,61.5,58.8,29.72,West,259,0.0,0.0,91,0.00,,---,0.04,77.00,VWS V14.00,2013-06-09 17:12:00,
2013-06-09 12:17:00,61.5,58.8,29.72,WNW,290,0.0,1.0,91,0.00,,---,0.04,84.00,VWS V14.00,2013-06-09 17:17:00,
2013-06-09 12:22:00,61.6,59.0,29.72,NW,304,0.0,0.0,91,0.00,,---,0.04,77.00,VWS V14.00,2013-06-09 17:22:00,
2013-06-09 12:27:00,61.7,59.0,29.72,NW,313,0.0,0.0,91,0.00,,---,0.04,65.00,VWS V14.00,2013-06-09 17:27:00,
2013-06-09 12:32:00,61.8,59.2,29.72,WNW,298,0.0,1.0,91,0.00,,---,0.04,62.00,VWS V14.00,2013-06-09 17:32:00,
2013-06-09 12:38:00,61.9,58.9,29.72,NW,309,0.0,0.0,90,0.00,,---,0.04,74.00,VWS V14.00,2013-06-09 17:38:00,
2013-06-09 12:43:00,62.0,59.0,29.72,NW,306,0.0,0.0,90,0.00,,---,0.04,88.00,VWS V14.00,2013-06-09 17:43:00,
2013-06-09 12:48:00,62.1,59.1,29.72,NW,306,0.0,1.0,90,0.00,,---,0.04,107.00,VWS V14.00,2013-06-09 17:48:00,
2013-06-09 12:53:00,62.2,59.2,29.72,West,263,0.0,1.0,90,0.00,,---,0.04,141.00,VWS V14.00,2013-06-09 17:53:00,
2013-06-09 12:58:00,62.3,59.3,29.72,NW,306,0.0,1.0,90,0.00,,---,0.04,167.00,VWS V14.00,2013-06-09 17:58:00,
2013-06-09 13:03:00,62.5,59.5,29.72,NNW,327,0.0,1.0,90,0.00,,---,0.04,160.00,VWS V14.00,2013-06-09 18:03:00,
2013-06-09 13:08:00,62.6,59.3,29.73,NW,304,0.0,1.0,89,0.00,,---,0.05,193.00,VWS V14.00,2013-06-09 18:08:00,
2013-06-09 13:13:00,62.8,59.2,29.73,NW,323,0.0,2.0,88,0.00,,---,0.05,246.00,VWS V14.00,2013-06-09 18:13:00,
2013-06-09 13:18:00,63.0,59.4,29.73,WNW,300,2.0,6.0,88,0.00,,---,0.05,279.00,VWS V14.00,2013-06-09 18:18:00,
2013-06-09 13:23:00,63.3,59.7,29.73,NW,317,1.0,2.0,88,0.00,,---,0.05,214.00,VWS V14.00,2013-06-09 18:23:00,
2013-06-09 13:28:00,63.6,59.7,29.73,NW,312,0.0,1.0,87,0.00,,---,0.05,192.00,VWS V14.00,2013-06-09 18:28:00,
2013-06-09 13:33:00,63.8,59.5,29.73,NW,315,0.0,1.0,86,0.00,,---,0.05,144.00,VWS V14.00,2013-06-09 18:33:00,
2013-06-09 13:38:00,63.9,59.6,29.73,NW,316,0.0,1.0,86,0.00,,---,0.05,130.00,VWS V14.00,2013-06-09 18:38:00,
2013-06-09 13:43:00,64.0,59.7,29.73,NW,321,0.0,1.0,86,0.00,,---,0.05,97.00,VWS V14.00,2013-06-09 18:43:00,
2013-06-09 13:48:00,64.1,59.8,29.73,NW,304,0.0,1.0,86,0.00,,---,0.05,74.00,VWS V14.00,2013-06-09 18:48:00,
2013-06-09 13:53:00,64.1,59.5,29.73,NW,309,0.0,1.0,85,0.00,,---,0.05,76.00,VWS V14.00,2013-06-09 18:53:00,
2013-06-09 13:58:00,64.1,59.5,29.73,WNW,292,0.0,1.0,85,0.00,,---,0.05,67.00,VWS V14.00,2013-06-09 18:58:00,
2013-06-09 14:03:00,64.1,59.5,29.73,NW,311,0.0,1.0,85,0.00,,---,0.05,53.00,VWS V14.00,2013-06-09 19:03:00,
2013-06-09 14:08:00,64.1,59.5,29.73,NW,313,2.0,2.0,85,0.00,,---,0.05,76.00,VWS V14.00,2013-06-09 19:08:00,
2013-06-09 14:13:00,64.0,59.4,29.73,NW,317,0.0,1.0,85,0.00,,---,0.05,149.00,VWS V14.00,2013-06-09 19:13:00,
2013-06-09 14:18:00,64.1,59.5,29.73,NW,313,0.0,1.0,85,0.00,,---,0.05,267.00,VWS V14.00,2013-06-09 19:18:00,
2013-06-09 14:23:00,64.3,59.7,29.73,NW,315,1.0,1.0,85,0.00,,---,0.05,214.00,VWS V14.00,2013-06-09 19:23:00,
2013-06-09 14:28:00,64.6,60.0,29.73,NW,304,0.0,1.0,85,0.00,,---,0.05,149.00,VWS V14.00,2013-06-09 19:28:00,
2013-06-09 14:33:00,64.8,59.9,29.73,NW,316,1.0,1.0,84,0.00,,---,0.05,142.00,VWS V14.00,2013-06-09 19:33:00,
2013-06-09 14:39:00,64.9,59.6,29.73,NNW,331,1.0,4.0,83,0.00,,---,0.05,127.00,VWS V14.00,2013-06-09 19:39:00,
2013-06-09 14:44:00,65.0,59.7,29.74,WNW,303,0.0,1.0,83,0.00,,---,0.05,104.00,VWS V14.00,2013-06-09 19:44:00,
2013-06-09 14:49:00,65.0,59.7,29.74,NW,321,0.0,1.0,83,0.00,,---,0.05,153.00,VWS V14.00,2013-06-09 19:49:00,
2013-06-09 14:54:00,65.1,60.2,29.74,NW,314,2.0,2.0,84,0.00,,---,0.05,104.00,VWS V14.00,2013-06-09 19:54:00,
2013-06-09 14:59:00,65.2,60.2,29.73,NW,317,0.0,1.0,84,0.00,,---,0.05,33.00,VWS V14.00,2013-06-09 19:59:00,
2013-06-09 15:04:00,65.1,60.2,29.73,NNW,333,1.0,1.0,84,0.00,,---,0.05,49.00,VWS V14.00,2013-06-09 20:04:00,
2013-06-09 15:09:00,64.9,60.0,29.73,NW,309,0.0,1.0,84,0.00,,---,0.05,63.00,VWS V14.00,2013-06-09 20:09:00,
2013-06-09 15:14:00,64.7,59.8,29.74,NNW,338,0.0,11.0,84,0.00,,---,0.05,141.00,VWS V14.00,2013-06-09 20:14:00,
2013-06-09 15:19:00,64.5,59.6,29.74,NW,315,1.0,2.0,84,0.00,,---,0.05,200.00,VWS V14.00,2013-06-09 20:19:00,
2013-06-09 15:24:00,64.6,59.7,29.73,NW,314,0.0,1.0,84,0.00,,---,0.05,244.00,VWS V14.00,2013-06-09 20:24:00,
2013-06-09 15:29:00,64.7,60.1,29.74,NW,318,0.0,1.0,85,0.00,,---,0.05,116.00,VWS V14.00,2013-06-09 20:29:00,
2013-06-09 15:34:00,64.9,60.3,29.74,NW,316,0.0,3.0,85,0.00,,---,0.05,32.00,VWS V14.00,2013-06-09 20:34:00,
2013-06-09 15:39:00,64.9,60.6,29.74,NW,319,0.0,1.0,86,0.00,,---,0.06,60.00,VWS V14.00,2013-06-09 20:39:00,
2013-06-09 15:44:00,64.7,60.4,29.74,NW,316,0.0,4.0,86,0.00,,---,0.06,84.00,VWS V14.00,2013-06-09 20:44:00,
2013-06-09 15:49:00,64.3,60.3,29.74,NW,317,0.0,1.0,87,0.00,,---,0.06,63.00,VWS V14.00,2013-06-09 20:49:00,
2013-06-09 15:54:00,64.0,60.1,29.74,NW,315,0.0,1.0,87,0.00,,---,0.06,62.00,VWS V14.00,2013-06-09 20:54:00,
2013-06-09 15:59:00,63.7,60.1,29.74,NW,304,0.0,1.0,88,0.00,,---,0.06,77.00,VWS V14.00,2013-06-09 20:59:00,
2013-06-09 16:04:00,63.5,59.9,29.74,NW,319,0.0,1.0,88,0.00,,---,0.06,213.00,VWS V14.00,2013-06-09 21:04:00,
2013-06-09 16:09:00,63.6,60.3,29.74,NW,317,0.0,1.0,89,0.00,,---,0.06,322.00,VWS V14.00,2013-06-09 21:09:00,
2013-06-09 16:14:00,63.8,60.5,29.74,NW,321,0.0,1.0,89,0.00,,---,0.06,213.00,VWS V14.00,2013-06-09 21:14:00,
2013-06-09 16:19:00,64.1,60.8,29.74,NW,325,0.0,1.0,89,0.00,,---,0.06,257.00,VWS V14.00,2013-06-09 21:19:00,
2013-06-09 16:24:00,64.3,60.7,29.74,NW,319,0.0,1.0,88,0.00,,---,0.06,276.00,VWS V14.00,2013-06-09 21:24:00,
2013-06-09 16:29:00,64.6,61.0,29.73,NW,321,0.0,1.0,88,0.00,,---,0.06,251.00,VWS V14.00,2013-06-09 21:29:00,
2013-06-09 16:34:00,64.9,60.9,29.73,NW,304,0.0,1.0,87,0.00,,---,0.06,172.00,VWS V14.00,2013-06-09 21:34:00,
2013-06-09 16:39:00,65.0,60.7,29.73,NW,319,3.0,3.0,86,0.00,,---,0.06,229.00,VWS V14.00,2013-06-09 21:39:00,
2013-06-09 16:44:00,65.2,60.6,29.73,NW,320,0.0,2.0,85,0.00,,---,0.06,278.00,VWS V14.00,2013-06-09 21:44:00,
2013-06-09 16:50:00,65.4,60.5,29.73,NW,319,1.0,1.0,84,0.00,,---,0.06,292.00,VWS V14.00,2013-06-09 21:50:00,
2013-06-09 16:55:00,66.1,61.1,29.73,NW,323,0.0,1.0,84,0.00,,---,0.06,817.00,VWS V14.00,2013-06-09 21:55:00,
2013-06-09 17:00:00,67.5,61.5,29.73,NW,315,1.0,1.0,81,0.00,,---,0.06,800.00,VWS V14.00,2013-06-09 22:00:00,
2013-06-09 17:05:00,68.3,61.9,29.73,NW,319,0.0,3.0,80,0.00,,---,0.06,380.00,VWS V14.00,2013-06-09 22:05:00,
2013-06-09 17:10:00,68.7,61.6,29.73,NW,308,0.0,3.0,78,0.00,,---,0.06,728.00,VWS V14.00,2013-06-09 22:10:00,
2013-06-09 17:15:00,69.0,61.5,29.73,NW,313,0.0,13.0,77,0.00,,---,0.06,717.00,VWS V14.00,2013-06-09 22:15:00,
2013-06-09 17:20:00,69.0,61.5,29.74,NW,321,0.0,1.0,77,0.00,,---,0.06,587.00,VWS V14.00,2013-06-09 22:20:00,
2013-06-09 17:25:00,69.0,61.9,29.74,NW,308,0.0,1.0,78,0.00,,---,0.06,705.00,VWS V14.00,2013-06-09 22:25:00,
2013-06-09 17:30:00,69.5,62.3,29.73,NW,317,0.0,2.0,78,0.00,,---,0.06,738.00,VWS V14.00,2013-06-09 22:30:00,
2013-06-09 17:35:00,69.8,62.3,29.74,NW,323,0.0,1.0,77,0.00,,---,0.06,737.00,VWS V14.00,2013-06-09 22:35:00,
2013-06-09 17:40:00,69.9,61.6,29.74,NW,310,0.0,2.0,75,0.00,,---,0.06,84.00,VWS V14.00,2013-06-09 22:40:00,
2013-06-09 17:45:00,69.6,61.0,29.74,NNW,328,0.0,2.0,74,0.00,,---,0.06,114.00,VWS V14.00,2013-06-09 22:45:00,
2013-06-09 17:50:00,69.3,61.0,29.74,NW,325,1.0,2.0,75,0.00,,---,0.06,186.00,VWS V14.00,2013-06-09 22:50:00,
2013-06-09 17:55:00,69.0,60.8,29.74,NW,319,0.0,1.0,75,0.00,,---,0.06,190.00,VWS V14.00,2013-06-09 22:55:00,
2013-06-09 18:00:00,68.8,60.2,29.74,NW,321,0.0,2.0,74,0.00,,---,0.06,202.00,VWS V14.00,2013-06-09 23:00:00,
2013-06-09 18:05:00,68.6,60.0,29.74,NW,314,0.0,7.0,74,0.00,,---,0.06,185.00,VWS V14.00,2013-06-09 23:05:00,
2013-06-09 18:10:00,68.4,60.2,29.74,NW,318,0.0,2.0,75,0.00,,---,0.06,186.00,VWS V14.00,2013-06-09 23:10:00,
2013-06-09 18:15:00,68.4,60.2,29.74,NW,311,0.0,1.0,75,0.00,,---,0.06,151.00,VWS V14.00,2013-06-09 23:15:00,
2013-06-09 18:20:00,68.3,60.1,29.74,NW,311,0.0,2.0,75,0.00,,---,0.06,146.00,VWS V14.00,2013-06-09 23:20:00,
2013-06-09 18:25:00,68.2,60.0,29.74,NW,319,2.0,12.0,75,0.00,,---,0.06,97.00,VWS V14.00,2013-06-09 23:25:00,
2013-06-09 18:30:00,68.1,59.9,29.74,NW,324,0.0,10.0,75,0.00,,---,0.06,93.00,VWS V14.00,2013-06-09 23:30:00,
2013-06-09 18:35:00,67.9,60.1,29.75,NW,315,0.0,14.0,76,0.00,,---,0.06,113.00,VWS V14.00,2013-06-09 23:35:00,
2013-06-09 18:40:00,67.8,60.0,29.75,NW,322,0.0,1.0,76,0.00,,---,0.06,86.00,VWS V14.00,2013-06-09 23:40:00,
2013-06-09 18:45:00,67.7,59.9,29.75,NW,326,1.0,1.0,76,0.00,,---,0.06,86.00,VWS V14.00,2013-06-09 23:45:00,
2013-06-09 18:50:00,67.6,60.1,29.75,NNW,327,0.0,1.0,77,0.00,,---,0.06,88.00,VWS V14.00,2013-06-09 23:50:00,
2013-06-09 18:55:00,67.5,60.0,29.75,NW,324,1.0,3.0,77,0.00,,---,0.06,72.00,VWS V14.00,2013-06-09 23:55:00,
2013-06-09 19:01:00,67.4,60.0,29.76,NNW,340,1.0,1.0,77,0.00,,---,0.06,46.00,VWS V14.00,2013-06-10 00:01:00,
2013-06-09 19:06:00,67.2,59.8,29.75,NW,306,0.0,2.0,77,0.00,,---,0.06,84.00,VWS V14.00,2013-06-10 00:06:00,
2013-06-09 19:11:00,67.0,59.6,29.76,NW,319,0.0,1.0,77,0.00,,---,0.06,62.00,VWS V14.00,2013-06-10 00:11:00,
2013-06-09 19:16:00,66.9,59.8,29.76,NW,323,1.0,1.0,78,0.00,,---,0.06,54.00,VWS V14.00,2013-06-10 00:16:00,
2013-06-09 19:21:00,66.7,59.6,29.76,NW,310,0.0,0.0,78,0.00,,---,0.06,40.00,VWS V14.00,2013-06-10 00:21:00,
2013-06-09 19:26:00,66.6,59.5,29.76,NW,323,0.0,1.0,78,0.00,,---,0.06,44.00,VWS V14.00,2013-06-10 00:26:00,
2013-06-09 19:31:00,66.5,59.4,29.76,NW,325,0.0,1.0,78,0.00,,---,0.06,37.00,VWS V14.00,2013-06-10 00:31:00,
2013-06-09 19:37:00,66.4,59.7,29.76,NW,324,0.0,0.0,79,0.00,,---,0.06,26.00,VWS V14.00,2013-06-10 00:37:00,
2013-06-09 19:42:00,66.3,59.6,29.76,NW,324,0.0,0.0,79,0.00,,---,0.06,30.00,VWS V14.00,2013-06-10 00:42:00,
2013-06-09 19:47:00,66.2,59.9,29.76,NW,322,0.0,1.0,80,0.00,,---,0.06,28.00,VWS V14.00,2013-06-10 00:47:00,
2013-06-09 19:52:00,66.1,59.8,29.76,NNW,329,0.0,1.0,80,0.00,,---,0.06,16.00,VWS V14.00,2013-06-10 00:52:00,
2013-06-09 19:57:00,65.9,59.6,29.76,NW,320,0.0,1.0,80,0.00,,---,0.06,18.00,VWS V14.00,2013-06-10 00:57:00,
2013-06-09 20:02:00,65.9,59.6,29.77,NW,325,0.0,1.0,80,0.00,,---,0.06,21.00,VWS V14.00,2013-06-10 01:02:00,
2013-06-09 20:07:00,65.8,59.5,29.77,NW,318,1.0,1.0,80,0.00,,---,0.06,30.00,VWS V14.00,2013-06-10 01:07:00,
2013-06-09 20:12:00,65.8,59.5,29.77,NNW,327,0.0,1.0,80,0.00,,---,0.06,25.00,VWS V14.00,2013-06-10 01:12:00,
2013-06-09 20:17:00,65.8,59.5,29.76,NW,324,0.0,1.0,80,0.00,,---,0.06,21.00,VWS V14.00,2013-06-10 01:17:00,
2013-06-09 20:22:00,65.8,59.8,29.76,NW,325,0.0,1.0,81,0.00,,---,0.06,19.00,VWS V14.00,2013-06-10 01:22:00,
2013-06-09 20:27:00,65.8,59.8,29.76,NW,321,0.0,1.0,81,0.00,,---,0.06,19.00,VWS V14.00,2013-06-10 01:27:00,
2013-06-09 20:32:00,65.7,59.7,29.77,NW,311,0.0,1.0,81,0.00,,---,0.06,14.00,VWS V14.00,2013-06-10 01:32:00,
2013-06-09 20:37:00,65.7,59.7,29.77,NNW,327,0.0,0.0,81,0.00,,---,0.06,11.00,VWS V14.00,2013-06-10 01:37:00,
2013-06-09 20:43:00,65.6,59.6,29.77,NNW,333,0.0,0.0,81,0.00,,---,0.06,11.00,VWS V14.00,2013-06-10 01:43:00,
2013-06-09 20:48:00,65.6,59.6,29.77,NNW,329,0.0,1.0,81,0.00,,---,0.06,9.00,VWS V14.00,2013-06-10 01:48:00,
2013-06-09 20:53:00,65.5,59.5,29.77,NW,321,0.0,1.0,81,0.00,,---,0.06,7.00,VWS V14.00,2013-06-10 01:53:00,
2013-06-09 20:58:00,65.4,59.8,29.77,NW,323,0.0,1.0,82,0.00,,---,0.06,5.00,VWS V14.00,2013-06-10 01:58:00,
2013-06-09 21:03:00,65.3,59.7,29.77,NW,323,0.0,1.0,82,0.00,,---,0.06,0.00,VWS V14.00,2013-06-10 02:03:00,
2013-06-09 21:08:00,65.1,59.5,29.77,NW,320,0.0,1.0,82,0.00,,---,0.06,0.00,VWS V14.00,2013-06-10 02:08:00,
2013-06-09 21:13:00,64.9,59.6,29.77,NW,320,0.0,0.0,83,0.00,,---,0.06,0.00,VWS V14.00,2013-06-10 02:13:00,
2013-06-09 21:18:00,64.8,59.5,29.78,NW,322,0.0,1.0,83,0.00,,---,0.06,0.00,VWS V14.00,2013-06-10 02:18:00,
2013-06-09 21:23:00,64.6,59.3,29.78,NW,323,0.0,1.0,83,0.00,,---,0.06,0.00,VWS V14.00,2013-06-10 02:23:00,
2013-06-09 21:28:00,64.4,59.1,29.78,NW,321,0.0,1.0,83,0.00,,---,0.06,0.00,VWS V14.00,2013-06-10 02:28:00,
2013-06-09 21:33:00,64.2,59.3,29.78,NW,321,0.0,0.0,84,0.00,,---,0.06,0.00,VWS V14.00,2013-06-10 02:33:00,
2013-06-09 21:38:00,64.0,59.1,29.78,NW,321,0.0,0.0,84,0.00,,---,0.06,0.00,VWS V14.00,2013-06-10 02:38:00,
2013-06-09 21:43:00,63.9,59.3,29.78,NW,322,0.0,0.0,85,0.00,,---,0.06,0.00,VWS V14.00,2013-06-10 02:43:00,
2013-06-09 21:48:00,63.7,59.1,29.78,NW,323,0.0,1.0,85,0.00,,---,0.06,0.00,VWS V14.00,2013-06-10 02:48:00,
2013-06-09 21:53:00,63.6,59.0,29.78,NNW,327,0.0,1.0,85,0.00,,---,0.06,0.00,VWS V14.00,2013-06-10 02:53:00,
2013-06-09 21:58:00,63.4,59.2,29.79,NNW,327,0.0,1.0,86,0.00,,---,0.06,0.00,VWS V14.00,2013-06-10 02:58:00,
2013-06-09 22:03:00,63.3,59.0,29.79,NNW,327,0.0,1.0,86,0.00,,---,0.06,0.00,VWS V14.00,2013-06-10 03:03:00,
2013-06-09 22:08:00,63.1,58.8,29.79,NNW,333,0.0,1.0,86,0.00,,---,0.06,0.00,VWS V14.00,2013-06-10 03:08:00,
2013-06-09 22:13:00,63.0,58.8,29.79,NNW,331,0.0,1.0,86,0.00,,---,0.06,0.00,VWS V14.00,2013-06-10 03:13:00,
2013-06-09 22:18:00,62.9,59.0,29.79,NNW,331,0.0,1.0,87,0.00,,---,0.06,0.00,VWS V14.00,2013-06-10 03:18:00,
2013-06-09 22:23:00,62.9,59.0,29.79,NNW,327,0.0,1.0,87,0.00,,---,0.06,0.00,VWS V14.00,2013-06-10 03:23:00,
2013-06-09 22:28:00,62.8,58.9,29.80,NNW,327,0.0,0.0,87,0.00,,---,0.06,0.00,VWS V14.00,2013-06-10 03:28:00,
2013-06-09 22:33:00,62.8,58.9,29.80,NNW,331,0.0,1.0,87,0.00,,---,0.06,0.00,VWS V14.00,2013-06-10 03:33:00,
2013-06-09 22:39:00,62.7,58.8,29.80,NNW,332,0.0,1.0,87,0.00,,---,0.06,0.00,VWS V14.00,2013-06-10 03:39:00,
2013-06-09 22:44:00,62.6,58.7,29.80,NNW,331,0.0,0.0,87,0.00,,---,0.06,0.00,VWS V14.00,2013-06-10 03:44:00,
2013-06-09 22:49:00,62.5,58.6,29.80,NNW,331,0.0,0.0,87,0.00,,---,0.06,0.00,VWS V14.00,2013-06-10 03:49:00,
2013-06-09 22:54:00,62.4,58.5,29.80,NNW,335,0.0,0.0,87,0.00,,---,0.06,0.00,VWS V14.00,2013-06-10 03:54:00,
2013-06-09 22:59:00,62.3,58.7,29.80,NNW,335,0.0,2.0,88,0.00,,---,0.06,0.00,VWS V14.00,2013-06-10 03:59:00,
2013-06-09 23:01:00,62.2,58.6,29.80,NNW,335,0.0,0.0,88,0.00,,---,0.06,0.00,VWS V14.00,2013-06-10 04:01:00,
2013-06-09 23:03:00,62.2,58.6,29.80,NNW,335,0.0,0.0,88,0.00,,---,0.06,0.00,VWS V14.00,2013-06-10 04:03:00,
2013-06-09 23:05:00,62.2,58.6,29.80,NNW,335,0.0,0.0,88,0.00,,---,0.06,0.00,VWS V14.00,2013-06-10 04:05:00,
2013-06-09 23:10:00,62.0,58.4,29.80,NNW,334,0.0,1.0,88,0.00,,---,0.06,0.00,VWS V14.00,2013-06-10 04:10:00,
2013-06-09 23:15:00,61.9,58.3,29.80,NNW,334,0.0,0.0,88,0.00,,---,0.06,0.00,VWS V14.00,2013-06-10 04:15:00,
2013-06-09 23:20:00,61.8,58.2,29.80,NNW,334,0.0,1.0,88,0.00,,---,0.06,0.00,VWS V14.00,2013-06-10 04:20:00,
2013-06-09 23:25:00,61.6,58.0,29.80,NNW,334,0.0,1.0,88,0.00,,---,0.06,0.00,VWS V14.00,2013-06-10 04:25:00,
2013-06-09 23:30:00,61.5,57.9,29.80,NNW,333,0.0,1.0,88,0.00,,---,0.06,0.00,VWS V14.00,2013-06-10 04:30:00,
2013-06-09 23:35:00,61.4,57.8,29.80,NNW,332,0.0,1.0,88,0.00,,---,0.06,0.00,VWS V14.00,2013-06-10 04:35:00,
2013-06-09 23:40:00,61.3,57.7,29.80,NNW,331,0.0,1.0,88,0.00,,---,0.06,0.00,VWS V14.00,2013-06-10 04:40:00,
2013-06-09 23:45:00,61.2,57.9,29.80,NW,324,0.0,2.0,89,0.00,,---,0.06,0.00,VWS V14.00,2013-06-10 04:45:00,
2013-06-09 23:50:00,61.1,57.8,29.79,NW,325,0.0,1.0,89,0.00,,---,0.06,0.00,VWS V14.00,2013-06-10 04:50:00,
2013-06-09 23:55:00,60.9,57.6,29.80,NW,325,1.0,1.0,89,0.00,,---,0.00,0.00,VWS V14.00,2013-06-10 04:55:00,